COSMOS 2251 DEB, 35018

Orbit data source: Space-Track

COSMOS 2251 DEB, 35018 is space debris in LEO originally from a launch on Wed, 16 Jun 1993 UTC launched from the Plesetsk Missile And Space Complex (PKMTR). The debris from Iridium 33, an American commercial communications satellite, has been tracked extensively since its accidental collision with the defunct Russian satellite Cosmos 2251 in 2009. This event, occurring at high speed in low Earth orbit (LEO), generated thousands of pieces of space debris, significantly increasing the risk of further collisions. The Iridium 33 debris cloud has impacted space traffic management and orbital debris mitigation strategies, making it a subject of ongoing study in space situational awareness.

Loading next visibility...
Identifier
35018, 1993-036AGF
Orbit
LEO
Country
Flag of CISCIS
Related business
Manufacturer
Unknown
Mission
Spacecraft
Bus & Motor
Unknown
Mass
Unknown
Launch date (UTC)
1993-06-16 (32 years ago)
Launch vehicle
Unknown
Launch site
Plesetsk Missile And Space Complex (PKMTR)
Object type
Payload
Rocket body
Debris
Shape & HBR
Unknown shape, 0.1 m
Radar Cross Section
Small (<0.1 m²)

Expand to show TLE details & history
Last TLE update: 4 days ago

TLE from 4 days ago
0 COSMOS 2251 DEB
1 35018U 93036AGF 25301.67118495  .00002077  00000-0  16544-2 0  9998
2 35018  73.9771 184.1865 0347349 102.9727 261.0411 13.66940659825700
Epoch: 2025-10-28T16:06Z
TLE epoch observation values (Epoch: 2025-10-28T16:06:30.379Z)
Latitude
-0.00002°
Longitude
-94.69541°
Altitude
1,061.701 km
Speed
7.297 km/s
True Right ascension
12h 16m 44s
True Declination
0° 00' 00"
Sunlit
Object was in daylight at epoch
Visualization orbit readout
Latitude
Unknown
Longitude
Unknown
Altitude
Unknown
Speed
Unknown
Apparent Right ascension
Unknown
Apparent Declination
Unknown
Sunlit
N/A
Visualization observer readout
Local Sidereal Time
04:09:49
Azimuth
Unknown
Elevation
Unknown
Doppler factor
Unknown
Orbital elements
Apogee altitude
1,264.843 km
Perigee altitude
751.71 km
Semi-major axis
7,386.414 km
Eccentricity
0.03473
Inclination
73.9771°
RAAN
184.1865°
Arg. of periapsis
102.9727°
True anomaly
257.13876°
Mean anomaly
261.0411°
Eccentric anomaly
259.08693°
Mean motion
3.41895 °/min
Orbital period
105.3 mins
BSTAR
0.0016544

Documentation

Showing up to 5 results
|